Location: Larkspur
(54.4391°N, 113.7691°W)
Time: 21:19:31
(UTC+00:00)

MOZHAYETS 4 - Pass Details

Date: 02 December 2023
Orbit: 654 x 672 km, 98.3° (Epoch: 03 March)

Event Time Altitude Azimuth Distance (km) Brightness Sun altitude
Rises 00:08:33 0° 13° (NNE) 3,032 10.7 -7.4°
Reaches altitude 10° 00:10:48 10° 11° (N) 2,116 9.9 -7.7°
Maximum altitude 00:15:22 65° 290° (WNW) 743 8.2 -8.3°
Drops below altitude 10° 00:19:56 10° 209° (SSW) 2,106 11.2 -8.8°
Sets 00:22:10 0° 207° (SSW) 3,016 12.0 -9.1°
